Timeline UpdatesTrip UpdatesNews PostsPvt PostsTravel TipsAdmin PostsConv PostsFollowed PostsChat RequestsBlog PostsPNR Posts

Disclaimer
Search
 
 
Wed Sep 3, 2014 10:14:44 ISTHomeTrainsΣChainsAtlasPNRForumGalleryNewsFAQTripsMembersLoginFeedback
No Recent News for this Train
Other Trains in the News **new
Latest...
Cancelled on 22/5/14 due to rake shortage
Mon May 19, 2014 (06:13PM)
⇐ Return Journey: Train# 13007

13008/Udyan Abha Toofan Express

Time-Table HAS CHANGED. update tt
Yesterday (12:27AM)
Change Departure Station:
Change Arrival Station:
Post a Train Travel TipPost a Train Travel Tip **new
Post a Comment/Question/Picture/VideoPost a Comment/Question/Picture/Video
Inaugural Run
Wed Jan 01, 1930
Pantry/Catering
✕ NO Pantry Car
✕ NO Catering
Loco/Rake Reversals
AGC/Agra Cantt. (6);
RSA - Rake Sharing
Rake/Coach Composition
LOCO-HCPV-HCPV-SLR-GEN-GEN-S1-S2-S3-S4-S5-B1-GEN-GEN-SLR.;;Entry# 252065 Author: mohantoursandtravels ;;Loco Reversal at Agra Cannt(AGC)
Loco
SGNR-NDLS: TKD WDM-3A NDLS-HWH: HWH WAP-4
News    PNR    Forum    Time-Table    Availability    Fare Chart    Map    Arr/Dep History    Trips    Gallery    ΣChains    X/O    Timeline    
Travel Time: 16h 4m    44 halts    Distance: 620 km    Avg Speed: 38 km/hr
Type: Mail/Express
Zone: ER/Eastern
Departs @ 03:26
Platform# ???
SMTWTFS
Banahi/BYN 
Arrives @ 19:30
Platform# 7
SMTWTFS
Kolkata Howrah Junction/HWH 

44 halts. 152 intermediate Stations between Banahi and Kolkata Howrah Junction

Show ALL intermediate Stations  Show Old Time-Table

#CodeStation NameX/OArrivesAvgDepartsAvgHaltPFDay#KmSpeedElevZoneAddress
1SGNRShri Ganganagar  -21:00-31-1361.778178mNWRSri Ganganagar, Rajasthan
2ABSAbohar  21:41-21:43-2m--1-1308.768186mNRAbohar, Punjab
3MOTMalout (1)  22:09-22:11-2m11-1279.261194mNRMalaut, Punjab
4GDBGiddarbaha  22:27-22:29-2m--1-1263.01200mNRGiddarbaha, Punjab
5BTIBathinda Junction (6)  23:10 23:10-00:05 00:05-55m52-1235.2-2208mNRBathinda, Punjab
6MAURMaur  00:32-00:34-2m--2-1199.670220mNRMaur Mandi, Punjab
7MSZMansa  00:50-00:52-2m--2-1180.954222mNRMansa, Punjab
8BLZBudhlada  01:10-01:12-2m--2-1164.849223mNRBudhlada, Punjab
9JHLJakhal Junction  01:50 01:48-01:55 01:53-5m--2-1135.273225mNRJakhal, Haryana
10TUNTohana (2)  02:06 02:03-02:08 02:05-2m--2-1123.073232mNRTohana, Haryana
11NRWNarwana Junction (4)  02:28 02:26-02:30 02:28-2m--2-1097.670235mNRWay to Narwana, Haryana
12UCAUchanaX  02:43 02:41-02:45 02:43-2m--2-1082.366225mNRDistrict Jind, Haryana
13JINDJind Junction (3)  03:05 03:00-03:10 03:05-5m--2-1063.773222mNR126102., Haryana
14JNAJulana  03:31 03:26-03:33 03:28-2m--2-1038.070226mNRJulana, Haryana
15ROKRohtak Junction (3)  04:03 03:55-04:07 04:00-4 5m--2-1006.684220mNRRohtak, Haryana
16SPZSampla  04:24 04:16-04:26 04:18-2m--2-984.272222mNRSampla, Haryana
17BGZBahadurgarh  04:46 04:33-04:48 04:35-2m--2-966.358220mNRBahadurgarh, Haryana
18NNONangloi  05:06 04:48-05:08 04:50-2m22-953.812219mNRJJ Colony No 1, Delhi NCT
19SSBShakur BastiX  05:38 05:28-05:40 05:30-2m--2-946.326216mNRPitampura, Delhi NCT
20DKZDelhi KishanGanj (2)  05:56 05:46-05:58 05:48-2m--2-939.47220mNRSarai Rohilla, Delhi NCT
21NDLSNew Delhi (16)  06:30 06:20-07:00-30 40m52-935.527215mNRNew Delhi, Delhi NCT
22TKDTuglakabad (4)XO  07:45 07:38-07:47 07:40-2m--2-918.429213mNRNear Tughlakabad Metro Station, Delhi NCT
23FDBFaridabad (4)X  08:13 08:03-08:15 08:05-2m32-907.344206mNRold Faridabad, Haryana
24BVHBallabgarh (5)  08:28 08:16-08:30 08:18-2m22-899.235203mNRFaridabad, Haryana
25PWLPalwal (8)X  08:54-08:56-2m--2-878.185200mNRPalwal, Haryana
26KSVKosi Kalan (3)X  09:26-09:28-2m22-835.656189mNCRKosi Kalan, Uttar Pradesh
27CHJChata (4)XO  09:39-09:41-2m--2-825.329 NCRChhata, Uttar Pradesh
28MTJMathura Junction (10)XO  10:45-10:50-5m12-794.153179mNCRMathura, Uttar Pradesh
29RKMRaja Ki Mandi (4)  11:46-11:48-2m22-744.511170mNCRAgra, Uttar Pradesh
30AGCAgra Cantt. (6)12:10-12:40 12:30-30 20m42-740.57174mNCRAgra, Uttar Pradesh
31IDHIdgah Agra Junction (3)  12:48-12:50-2m--2-738.311168mNCRAgra, Uttar Pradesh
32AFAgra Fort (3)  13:02-13:07-5m12-736.126170mNCRRakabganj, Uttar Pradesh
33TDLTundla Junction (5)  13:55 14:00-14:05 14:10-10m--2-713.255167mNCRDistt.Firozabad, Uttar Pradesh
34FZDFirozabad (4)X  14:24 14:28-14:26 14:30-2m22-696.760164mNCRFirozabad, Uttar Pradesh
35SKBShikohabad Junction (4)X  14:45 14:50-14:47 14:52-2m22-676.8150166mNCRDistrict Firozabad, Uttar Pradesh
36BDNBhadan (2)X  15:00-15:02-2m--2-656.878160mNCRFirozabad, Uttar Pradesh
37JGRJaswantnagar (2)X  15:17-15:19-2m--2-637.337154mNCRJaswantnagar, Uttar Pradesh
38ETWEtawah (5)  15:38 15:45-15:40 15:47-2m32-621.479154mNCRDistt. Etawah, Uttar Pradesh
39BNTBharthana (3)  15:54 16:02-15:56 16:04-2m--2-601.569147mNCRBharthana, Uttar Pradesh
40ULDAchalda (3)X  16:13 16:21-16:15 16:23-2m--2-582.067147mNCRDist. Auraiya(05688-1072), Uttar Pradesh
41PHDPhaphund (4)X  16:27 16:38-16:29 16:40-2m--2-565.259146mNCRdist. Auraiya, Uttar Pradesh
42JJKJhinjhak (3)  16:43 17:00-16:45 17:02-2m22-545.471140mNCRAuraiya, Uttar Pradesh
43RURARura (4)X  17:00 17:18-17:02 17:20-2m--2-526.398137mNCRJhinjhak, Uttar Pradesh
44PNKPanki (3)X  17:40-17:42-2m--2-493.542129mNCRKANPUR-208 020, Uttar Pradesh
45GOYGovindpuri Junction (2)  17:53-17:55-2m22-485.96129mNCRKANPUR-208 006, Uttar Pradesh
46CNBKanpur Central (10)O  18:25 18:30-18:40 18:45-15m--2-482.173128mNCRKANPUR-208 001, Uttar Pradesh
47BKOBindki RoadO  19:28 19:23-19:30 19:25-2m--2-435.867124mNCRFatehpur, Uttar Pradesh
48FTPFatehpur (3)  19:58 19:53-20:00 19:55-2m--2-404.590120mNCRFatehpur, Uttar Pradesh
49KGAKhaga (3)  20:23 20:18-20:25 20:20-2m--2-369.871114mNCRFatehpur, Uttar Pradesh
50SROSirathu (2)  20:44 20:41-20:46 20:43-2m12-345.067109mNCRSirathu, Uttar Pradesh
51BREBharwariO  21:03 21:01-21:05 21:03-2m--2-324.936108mNCRBharwari, Uttar Pradesh
52ALDAllahabad Junction (10)XO  22:05-22:15-10m62-287.890100mNCRAllahabad 211003, Uttar Pradesh
53BDLVindhyachal (3)XO  23:11 23:10-23:13 23:12-2m--2-205.62788mNCRMirzapur, Uttar Pradesh
54MZPMirzapur (3)O  23:33 23:28-23:35 23:30-2m22-198.37888mNCRMirzapur, Uttar Pradesh
55CARChunar Junction (5)  00:01 23:54-00:02 23:56-1 2m32-167.02885mNCRChunar Junction, Uttar Pradesh
56MGSMughal Sarai Junction (8)X  01:05-01:20 01:15-15 10m13-135.16583mECRMughalsarai 232101, Uttar Pradesh
57ZNAZamania (2)X  01:56-01:58-2m--3-90.86777mECRGhazipur, Uttar Pradesh
58DLNDildarnagar Junction (2)  02:10-02:12-2m--3-77.48072mECRDildarnagar, Uttar Pradesh
59BXRBuxar (3)X  02:39-02:44-5m--3-41.26167mECRBuxar, Bihar
60DUREDumraon (3)X  03:00-03:02-2m--3-24.88070mECRDumraon, Bihar
61RPRRaghunathpur (4)  03:14-03:16-2m--3-8.86669mECRRaghunathpur, Bihar
62BYN»Banahi (2)»  03:24-03:26-2m--30.05167mECRBanahi, Bihar
63BEABihiya (3)X  03:33-03:35-2m--35.97167mECRBehea, Bihar
64ARAAra Junction (3)X  03:53-03:57-4m--327.37463mECRarrah( 06182-233411), Bihar
65KUAKulharia (2)  04:05-04:07-2m--337.23161mECRChandi Sahar Rd, Bihar
66KWRKoelwar (2)O  04:14-04:16-2m--340.85865mECRNational Highway 30, Bihar
67BTABihta (2)  04:25-04:27-2m--349.54262mECRDistt: Patna, Bihar
68SDESadisopur (2)  04:33-04:35-2m--353.86164mECRSadisopur, Bihar
69NEONeora (2)XO  04:42-04:44-2m--360.8561mECRNational Highway 98, Bihar
70DNRDanapur (5)X  06:00-06:10-10m--366.93858mECRKhagaul, Bihar
71PNBEPatna Junction (10)  06:25-06:35-10m1376.34157mECRPatna 800001, Bihar
72GZHGulzarbagh (3)X  06:45-06:47-2m--383.12655mECRPatna, Bihar
73PNCPatna Saheb (3)  06:54-06:56-2m--386.26159mECRPatna, Bihar
74FUTFatwa (6)  07:08-07:10-2m--398.44653mECRPatna, Bihar
75KOOKhusropur (2)  07:21-07:23-2m--3106.86252mECRPatna, Bihar
76BKPBakhtiyarpur Junction (5)X  07:37-07:39-2m--3121.413651mECRPatna, Bihar
77ATLAthmal Gola (2)  07:43-07:45-2m--3130.51852mECRPatna, Bihar
78BARHBarh (3)  08:16-08:18-2m--3139.66949mECRBarh, Bihar
79PHKPunarakh (2)X  08:27-08:29-2m--3150.06251mECRPunarakh, Bihar
80MORMor (2)X  08:37-08:39-2m--3158.34346mECRMor, Bihar
81MKAMokama Junction (4)X  08:49-08:53-4m--3165.57248mECRPatna, Bihar
82HTZHathidah Junction (2)  09:00-09:02-2m13173.96350mECRMusahari, Bihar
83BRYABarhiya (3)  09:11-09:13-2m--3183.35147mECRBarahiya, Bihar
84DMRXDumri Halt (1)  09:18-09:20-2m13187.64549mECRNational Highway 80, Bihar
85MKBMankathaX  09:27-09:29-2m--3192.83047mECRNational Highway 80, Bihar
86LKRLuckeesarai Junction (2)XO  09:40-09:42-2m--3198.4852mECRLakhisarai, Bihar
87KIULKiul Junction (5)X  09:52-09:56-4m--3199.83853mECRDist. Lakhisarai, Bihar
88BSQPBansipur  10:03-10:05-2m--3204.12553mECRKiul, Bihar
89MNPMananpur (2)  10:11-10:13-2m--3206.78257mECRState Highway 18, Bihar
90JMUJamui (3)O  10:28-10:30-2m--3227.13081mECRState Highway 72, Bihar
91GHRGidhaur (2)  10:59-11:01-2m--3241.613106mECRState Highway 18, Bihar
92JAJJhajha (4)  11:52-11:57-5m--3253.175143mECRJhajha, Bihar
93STLSimultala (2)X  12:12-12:14-2m--3271.769247mERSimultala, Bihar
94JSMEJasidih Junction (5)X  12:36-12:41-5m--3297.270271mERJasidih, Jharkhand
95MDPMadhupur Junction (4)X  13:06-13:10-4m33326.281254mER06432-224478, Jharkhand
96VDSVidyasagar (2)  13:28-13:30-2m--3350.467250mERJamtara, Jharkhand
97JMTJamtara (2)X  13:46-13:48-2m23368.354201mERJamtara, Jharkhand
98CRJChittaranjan (3)X  14:04-14:06-2m23382.658182mERMihijam, Jharkhand
99STNSitarampur Junction (5)X  14:23-14:25-2m--3398.918139mERG T Rd Before Asansol, West Bengal
100ASNAsansol Junction (7)X  14:55-15:10-15m--3407.772113mERDist - bardhaman, West Bengal
101RNGRaniGanj (4)X  15:25-15:27-2m--3425.83692mERRaniganj, West Bengal
102UDLAndal Junction (6)X  15:39-15:41-2m--3433.17386mERAndal, West Bengal
103DGRDurgapur (5)X  15:55-15:57-2m--3450.19471mERDurgapur, West Bengal
104PANPanagarh (4)X  16:07-16:09-2m--3465.75570mERKaksa, West Bengal
105BWNBarddhaman Junction (8)X  17:01-17:06-5m--3513.75134mERDist - Barddhaman, West Bengal
106BDCBandel Junction (7)X  18:20 18:25-18:25 18:30-5m--3580.93914mERdist - HOOGHLY, West Bengal
107HWH•Kolkata Howrah Junction (23)•  19:20 19:30--73620.4-7510mERHowrah 711101, West Bengal
108PULRampura Phul (1) new halt!!  00:24-00:26-2m--4-1202.761220mNRRampura Phul, Punjab
109BNNBarnala (1) new halt!!  00:58-01:00-2m--4-1170.461233mNRBarnala, Punjab
110DUIDhuri Junction (4) new halt!!X  01:30-01:40-10m--4-1139.877248mNRDhuri, Punjab
111NBANabha (1) new halt!!  02:01-02:03-2m--4-1112.878250mNRNabha, Punjab
112PTAPatiala (4) new halt!!  02:23-02:25-2m--4-1087.033256mNRPatiala, Punjab
113RPJRajpura Junction (3) new halt!!X  03:10-03:13-3m--4-1062.277272mNRNH-1, Punjab
114UBCAmbala City (3) new halt!!X  03:29-03:31-2m--4-1041.724273mNRNH-1, Haryana
115UMBAmbala Cantt. Junction (7) new halt!!XO  03:50-04:22-32m--4-1034.1112278mNRAmbala 133001, Haryana
116DHPRDappar (2) new halt!!O  04:40-04:42-2m--4-1000.624299mNRNational Highway 22, Punjab
117CDGChandigarh Junction (5) new halt!!  05:10-05:20-10m--4-989.569334mNRDarua, Chandigarh
118CNDMChandi Mandir (1) new halt!!  05:28-05:30-2m--4-980.237381mNRPanchkula, Chandigarh
119KLKKalka (7) new halt!!  05:55----4-964.8-658mNRKalka-Shimla Highway, Haryana
Scroll to Top
Scroll to Bottom